Location: Newark
(44.6028°N, 124.0883°W)
Time: 22:24:46
(UTC+00:00)

Transit 2A Rocket - Visible Passes

Search period start: 15 October 2019 00:00
Search period end: 25 October 2019 00:00
Orbit: 593 x 910 km, 66.7° (Epoch: 15 October)

Date Brightness Start Highest point End Pass type
(mag) Time Alt. Az. Time Alt. Az. Time Alt. Az.
15 Oct 6.6 13:37:52 10° S 13:42:35 36° ESE 13:46:58 10° NE visible
16 Oct 7.5 12:56:27 10° SSE 13:00:15 21° ESE 13:03:51 10° ENE visible
17 Oct 7.9 12:16:17 10° SE 12:18:00 12° ESE 12:19:40 10° E visible
17 Oct 4.9 13:54:46 10° SSW 13:59:57 88° SE 14:04:41 10° NNE visible
18 Oct 5.7 13:12:28 10° SSW 13:17:28 51° ESE 13:22:04 10° NE visible
19 Oct 6.7 12:30:39 10° S 12:35:04 29° ESE 12:39:12 10° NE visible
20 Oct 7.4 11:49:30 10° SSE 11:52:46 17° ESE 11:55:52 10° ENE visible
20 Oct 4.8 13:29:50 10° SW 13:34:54 66° NW 13:39:34 10° NNE visible
21 Oct 5.0 12:48:24 17° SSW 12:52:23 73° ESE 12:57:04 10° NE visible
22 Oct 5.9 12:08:20 32° SSE 12:09:56 42° ESE 12:14:23 10° NE visible
22 Oct 5.7 13:48:19 10° WSW 13:52:34 29° NW 13:56:37 10° NNE visible
23 Oct 6.8 11:28:00 24° ESE 11:28:00 24° ESE 11:31:23 10° ENE visible
23 Oct 5.0 13:07:58 31° WSW 13:09:54 47° NW 13:14:23 10° NNE visible
24 Oct 7.8 10:47:27 11° E 10:47:27 11° E 10:47:42 10° ENE visible
24 Oct 4.6 12:27:24 79° NW 12:27:24 79° NW 12:31:59 10° NNE visible
24 Oct 6.5 14:07:53 10° WNW 14:10:32 15° NW 14:13:08 10° N visible
